User: anonymous   Login
Location: Prague
(50.0830°N, 14.4670°E)
Time: 06:26:26
(UTC+01:00)
Language:

MOZHAYETS 4 - Orbit

View from above orbital plane
View from above orbital plane
View from above satellite
View from above satellite

Ground track
Ground track

The orbit data is extracted from the following two-line orbital elements,

1 27939U 03042A   21338.82865144  .00000285  00000-0  59543-4 0  9999
2 27939  98.1651 114.9921 0014217 102.2010 258.0788 14.67071407972508
Epoch (UTC): 04 December 2021 19:53:15
Eccentricity: 0.0014217
inclination: 98.1651°
perigee height: 660 km
apogee height: 680 km
right ascension of ascending node: 114.9921°
argument of perigee: 102.2010°
revolutions per day: 14.67071407
mean anomaly at epoch: 258.0788°
orbit number at epoch: 97250

The dashed part of the orbit path shows where the satellite is in the earth's shadow,  

DLR